Weather History for KRQB - August, 2013

Change the Weather History Date:

Friday, August 23, 2013

  Actual Average Record
Temperature  
Mean Temperature 64 °F -  
Max Temperature 80 °F 76 °F 87 °F (1998)
Min Temperature 49 °F 53 °F 44 °F (2006)
Growing Degree Days 14 (Base 50)    
Moisture  
Dew Point 50 °F    
Average Humidity 64    
Maximum Humidity 100    
Minimum Humidity 30    
Precipitation  
Precipitation 0.00 in - - ()
Sea Level Pressure  
Sea Level Pressure 30.17 in    
Wind  
Wind Speed 3 mph (NNW)    
Max Wind Speed 9 mph    
Max Gust Speed -    
Visibility 10 miles    
Events      
Averages and records for this station are not official NWS values.
T = Trace of Precipitation, MM = Missing Value Source: NWS Daily Summary

Daily Weather History Graph

Daily Weather History Graph

Search for Another Location

Airport or City:

Trip Planner

Search our weather history database for the weather conditions in past years. The results will help you decide how hot, cold, wet, or windy it might be!

Date:

Astronomy

Aug. 23, 2013 Rise Set
Actual Time 6:55 AM EDT 8:32 PM EDT
Civil Twilight 6:25 AM EDT 9:02 PM EDT
Nautical Twilight 5:48 AM EDT 9:39 PM EDT
Astronomical Twilight 5:09 AM EDT 10:18 PM EDT
Moon 9:42 PM EDT (8/23) 9:57 AM EDT (8/23)
Length of Visible Light 14h 37m
Length of Day
13h 36m
Waning Gibbous, 91% of the Moon is Illuminated
Aug 23
Waning Gibbous
Aug 28
Last Quarter
Sep 5
New
Sep 12
First Quarter
Sep 19
Full

Hourly Weather History & Observations

Time (EDT) Temp. Dew Point Humidity Pressure Visibility Wind Dir Wind Speed Gust Speed Precip Events Conditions
12:14 AM 58.3 °F 50.9 °F 76% 30.12 in 10.0 mi Calm Calm - N/A   Clear
12:35 AM 60.3 °F 49.6 °F 68% 30.12 in 10.0 mi Calm Calm - N/A   Clear
12:55 AM 56.5 °F 50.2 °F 79% 30.13 in 10.0 mi Calm Calm - N/A   Clear
1:14 AM 56.7 °F 50.7 °F 80% 30.14 in 10.0 mi Calm Calm - N/A   Clear
1:35 AM 55.6 °F 50.2 °F 82% 30.14 in 10.0 mi West 6.9 mph - N/A   Clear
1:55 AM 55.0 °F 49.6 °F 82% 30.14 in 10.0 mi West 4.6 mph - N/A   Clear
2:14 AM 54.1 °F 49.8 °F 85% 30.14 in 10.0 mi West 4.6 mph - N/A   Clear
2:35 AM 53.6 °F 50.9 °F 91% 30.14 in 10.0 mi West 9.2 mph - N/A   Clear
2:55 AM 52.7 °F 51.3 °F 95% 30.14 in 10.0 mi West 6.9 mph - N/A   Clear
3:15 AM 53.1 °F 50.4 °F 91% 30.14 in 10.0 mi NW 3.5 mph - N/A   Clear
3:35 AM 53.8 °F 49.3 °F 85% 30.14 in 10.0 mi West 3.5 mph - N/A   Clear
3:55 AM 52.9 °F 50.2 °F 91% 30.14 in 10.0 mi West 3.5 mph - N/A   Clear
4:15 AM 51.8 °F 50.4 °F 95% 30.15 in 10.0 mi West 3.5 mph - N/A   Clear
4:35 AM 52.0 °F 51.4 °F 98% 30.14 in 10.0 mi Calm Calm - N/A   Clear
4:55 AM 52.0 °F 51.3 °F 97% 30.14 in 10.0 mi Calm Calm - N/A   Clear
5:15 AM 51.8 °F 51.1 °F 97% 30.15 in 10.0 mi Calm Calm - N/A   Clear
5:35 AM 50.9 °F 50.2 °F 97% 30.15 in 10.0 mi WNW 4.6 mph - N/A   Clear
5:55 AM 50.9 °F 50.0 °F 97% 30.15 in 10.0 mi West 3.5 mph - N/A   Clear
6:15 AM 50.2 °F 49.6 °F 98% 30.16 in 10.0 mi Calm Calm - N/A   Clear
6:35 AM 50.0 °F 49.8 °F 99% 30.16 in 10.0 mi Calm Calm - N/A   Clear
6:55 AM 49.5 °F 49.5 °F 100% 30.17 in 10.0 mi Calm Calm - N/A   Clear
7:15 AM 49.3 °F 49.3 °F 100% 30.17 in 10.0 mi Calm Calm - N/A   Clear
7:35 AM 49.6 °F 49.5 °F 99% 30.18 in 10.0 mi Calm Calm - N/A   Clear
7:55 AM 51.1 °F 50.4 °F 97% 30.18 in 10.0 mi Calm Calm - N/A   Clear
8:15 AM 54.0 °F 52.7 °F 95% 30.19 in 10.0 mi WNW 4.6 mph - N/A   Clear
8:35 AM 56.5 °F 54.7 °F 94% 30.19 in 10.0 mi NE 3.5 mph - N/A   Clear
8:55 AM 59.9 °F 52.7 °F 77% 30.19 in 10.0 mi Calm Calm - N/A   Clear
9:15 AM 61.9 °F 52.3 °F 71% 30.19 in 10.0 mi Calm Calm - N/A   Clear
9:35 AM 63.7 °F 52.3 °F 67% 30.21 in 10.0 mi NNE 4.6 mph - N/A   Clear
9:55 AM 65.7 °F 52.9 °F 63% 30.21 in 10.0 mi NNE 4.6 mph - N/A   Clear
10:15 AM 67.5 °F 53.1 °F 60% 30.21 in 10.0 mi ENE 3.5 mph - N/A   Clear
10:35 AM 68.5 °F 52.2 °F 56% 30.21 in 10.0 mi ENE 3.5 mph - N/A   Clear
10:55 AM 70.3 °F 52.2 °F 52% 30.21 in 10.0 mi Calm Calm - N/A   Clear
11:15 AM 72.1 °F 50.9 °F 47% 30.21 in 10.0 mi North 4.6 mph - N/A   Clear
11:35 AM 72.1 °F 49.6 °F 45% 30.21 in 10.0 mi Calm Calm - N/A   Clear
11:54 AM 73.9 °F 48.9 °F 41% 30.21 in 10.0 mi NW 3.5 mph - N/A   Clear
12:15 PM 74.7 °F 49.1 °F 40% 30.21 in 10.0 mi NNW 6.9 mph - N/A   Clear
12:35 PM 75.2 °F 48.4 °F 39% 30.20 in 10.0 mi NW 5.8 mph - N/A   Clear
12:54 PM 76.3 °F 46.6 °F 35% 30.20 in 10.0 mi East 5.8 mph - N/A   Clear
1:15 PM 76.8 °F 45.9 °F 33% 30.19 in 10.0 mi NE 3.5 mph - N/A   Clear
1:35 PM 77.5 °F 46.2 °F 33% 30.19 in 10.0 mi North 6.9 mph - N/A   Clear
1:54 PM 78.1 °F 46.2 °F 32% 30.19 in 10.0 mi NNE 5.8 mph - N/A   Clear
2:15 PM 78.8 °F 45.9 °F 31% 30.19 in 10.0 mi Calm Calm - N/A   Clear
2:35 PM 78.1 °F 45.1 °F 31% 30.19 in 10.0 mi NNW 4.6 mph - N/A   Clear
2:54 PM 79.3 °F 45.1 °F 30% 30.18 in 10.0 mi WNW 5.8 mph - N/A   Clear
3:15 PM 79.9 °F 46.0 °F 30% 30.17 in 10.0 mi NW 5.8 mph - N/A   Clear
3:35 PM 79.2 °F 46.0 °F 31% 30.17 in 10.0 mi Calm Calm - N/A   Clear
3:55 PM 79.7 °F 46.8 °F 31% 30.16 in 10.0 mi North 3.5 mph - N/A   Clear
4:15 PM 79.9 °F 46.6 °F 31% 30.16 in 10.0 mi Calm Calm - N/A   Clear
4:35 PM 80.6 °F 47.7 °F 31% 30.15 in 10.0 mi Calm Calm - N/A   Clear
4:55 PM 80.1 °F 47.5 °F 32% 30.15 in 10.0 mi Calm Calm - N/A   Clear
5:15 PM 79.9 °F 47.8 °F 32% 30.14 in 10.0 mi NNE 3.5 mph - N/A   Clear
5:35 PM 79.9 °F 47.5 °F 32% 30.14 in 10.0 mi ENE 5.8 mph - N/A   Clear
5:55 PM 79.5 °F 46.9 °F 32% 30.15 in 10.0 mi ESE 3.5 mph - N/A   Clear
6:15 PM 79.7 °F 46.6 °F 31% 30.15 in 10.0 mi East 6.9 mph - N/A   Clear
6:35 PM 79.7 °F 46.4 °F 31% 30.15 in 10.0 mi East 6.9 mph - N/A   Clear
6:55 PM 79.2 °F 46.4 °F 31% 30.15 in 10.0 mi East 6.9 mph - N/A   Clear
7:15 PM 78.6 °F 45.7 °F 31% 30.15 in 10.0 mi East 4.6 mph - N/A   Clear
7:35 PM 78.3 °F 46.4 °F 32% 30.15 in 10.0 mi ESE 4.6 mph - N/A   Clear
7:55 PM 74.7 °F 52.5 °F 46% 30.15 in 10.0 mi Calm Calm - N/A   Clear
8:15 PM 72.5 °F 52.7 °F 50% 30.15 in 10.0 mi Calm Calm - N/A   Clear
8:35 PM 68.4 °F 53.8 °F 60% 30.16 in 10.0 mi SW 3.5 mph - N/A   Clear
8:55 PM 68.7 °F 54.1 °F 60% 30.17 in 10.0 mi West 5.8 mph - N/A   Clear
9:15 PM 69.8 °F 55.8 °F 61% 30.17 in 10.0 mi West 4.6 mph - N/A   Clear
9:35 PM 66.4 °F 55.9 °F 69% 30.18 in 10.0 mi NW 3.5 mph - N/A   Clear
9:55 PM 63.7 °F 55.2 °F 74% 30.19 in 10.0 mi SE 4.6 mph - N/A   Clear
10:15 PM 65.1 °F 55.6 °F 71% 30.20 in 10.0 mi Calm Calm - N/A   Clear
10:35 PM 64.8 °F 55.9 °F 73% 30.20 in 10.0 mi West 3.5 mph - N/A   Clear
10:55 PM 62.1 °F 55.8 °F 80% 30.21 in 10.0 mi Calm Calm - N/A   Clear
11:15 PM 60.4 °F 54.9 °F 82% 30.21 in 10.0 mi Calm Calm - N/A   Clear
11:35 PM 60.8 °F 55.6 °F 83% 30.21 in 10.0 mi Calm Calm - N/A   Clear
11:55 PM 60.6 °F 55.8 °F 84% 30.22 in 10.0 mi Calm Calm - N/A   Clear